Torna al catalogo

COSMOS 2038

AttivoMilitarePO
NORAD 20232·PAYLOAD·🇷🇺 Russia

Lanciato Sep 14, 1989 da Plesetsk Cosmodrome

Loading…

Prossimi Passaggi (prossime 24 ore)

TLE

AggiornatoSource: Space-Track

Epoca: Sep 14, 2026, 13:55 UTC

1 20232U 89074A   26257.58018796  .00000033  00000-0  11784-3 0  9993
2 20232  82.5738 132.0302 0010473 214.0945 153.2946 12.65428579682774

Traccia COSMOS 2038 in tempo reale con AllMySat

Download on the App Store